This is the latest recevied weather packets stored in our database for station/object KE8GJZ-2. If no packets are shown the sender has not sent any weather packets the latest 1 day(s).
| Time | Temp. | Humidity | Pressure | Rain* | Wind** | Luminosity | Snow |
|---|---|---|---|---|---|---|---|
| 1778028444 | 8.89° C | 63% | 1008.4 hPa | 0 mm | - | 1 W/m² | - |
| 1778028142 | 8.89° C | 63% | 1008.3 hPa | 0 mm | - | 2 W/m² | - |
| 1778027230 | 8.89° C | 59% | 1008.3 hPa | 0 mm | - | 13 W/m² | - |
| 1778026927 | 9.44° C | 57% | 1008.3 hPa | 0 mm | - | 14 W/m² | - |
| 1778026320 | 10° C | 59% | 1008.2 hPa | 0 mm | - | 23 W/m² | - |
| 1778026017 | 10° C | 56% | 1008.4 hPa | 0 mm | - | 28 W/m² | - |
| 1778024806 | 10.56° C | 53% | 1008.3 hPa | 0 mm | - | 45 W/m² | - |
| 1778024503 | 10.56° C | 54% | 1008.3 hPa | 0 mm | - | 42 W/m² | - |
| 1778024200 | 10.56° C | 53% | 1008.5 hPa | 0 mm | - | 36 W/m² | - |
| 1778021778 | 10.56° C | 51% | 1008.6 hPa | 0 mm | - | 65 W/m² | - |
| 1778021171 | 10.56° C | 54% | 1008.4 hPa | 0 mm | - | 86 W/m² | - |
| 1778019958 | 10.56° C | 50% | 1008.5 hPa | 0 mm | - | 94 W/m² | - |
| 1778017233 | 10.56° C | 50% | 1008.7 hPa | 0 mm | - | 117 W/m² | - |
| 1778016931 | 10.56° C | 48% | 1008.6 hPa | 0 mm | - | 120 W/m² | - |
| 1778015718 | 11.11° C | 49% | 1008.4 hPa | 0 mm | - | 146 W/m² | - |
| 1778013294 | 11.11° C | 50% | 1008.6 hPa | 0 mm | - | 229 W/m² | - |
| 1778011476 | 11.11° C | 50% | 1008.8 hPa | 0 mm | - | 255 W/m² | - |
| 1778011171 | 11.67° C | 47% | 1008.9 hPa | 0 mm | - | 276 W/m² | - |
| 1778010566 | 11.67° C | 51% | 1008.7 hPa | 0 mm | - | 335 W/m² | - |
| 1778009661 | 11.11° C | 47% | 1008.8 hPa | 0 mm | - | 314 W/m² | - |
| 1778008149 | 11.11° C | 47% | 1008.9 hPa | 0 mm | - | 330 W/m² | - |
* Rain latest hour (hover to see other rain measurements)
** Current wind speed in m/s (hover to see current wind gust speed)